Tracking 19794 objects as of 22-Jul-2019
HD Live streaming from Space Station
objects crossing your sky now

FENGYUN 1C DEB

Track FENGYUN 1C DEB now!
10-day predictions


NORAD ID: 32156
Int'l Code: 1999-025CTA
Perigee: 745.6 km
Apogee: 869.5 km
Inclination: 99.3 °
Period: 100.9 minutes
Semi major axis: 7178 km
RCS: 0.0148 m2 (small)
Launch date: May 10, 1999
Source: People's Republic of China (PRC)
Launch site: Taiyaun Space Center, China (TSC)

Note: This is SATELLITE DEBRIS
aabbcc
Your satellite tracking list
Your tracking list is empty




NASA's NSSDC Master Catalog

Two Line Element Set (TLE):
1 32156U 99025CTA 19202.14588372  .00000045  00000-0  37520-4 0  9994
2 32156  99.3469 180.2785 0086318 279.5754  79.5679 14.27404304625976
Source of the keplerian elements: AFSPC